Regional Weather Roundup
Issued by NWS Cleveland, OH

Home | Current Version | Previous Version | Graphics & Text | Print | Product List | Glossary On
Versions: 1 2 3 4 5 6 7 8 9 10 11 12 13 14 15 16 17 18 19 20 21 22 23 24 25 26 27 28 29 30 31 32 33 34 35 36 37 38 39 40 41 42 43 44 45 46 47 48 49 50
000
ASUS41 KCLE 271110
RWRCLE
OHIO REGIONAL WEATHER ROUNDUP
NATIONAL WEATHER SERVICE WILMINGTON, OH
600 AM EST TUE JAN 27 2015

NOTE: "FAIR" INDICATES FEW OR NO CLOUDS BELOW 12,000 FEET WITH NO
SIGNIFICANT WEATHER AND/OR OBSTRUCTIONS TO VISIBILITY.

OHZ001>008-015>018-024>027-034-035-043-044-271200-
   NORTHWEST OHIO

CITY           SKY/WX    TMP DP  RH WIND       PRES   REMARKS
DEFIANCE       CLOUDY    16  10  77 CALM      30.01R
FINDLAY        MOCLDY     6   1  80 NW3       29.98R
TOLEDO EXPRESS MOCLDY    10   8  92 CALM      30.00R
TOLEDO EXEC    CLEAR     12   7  80 N5        30.02R WCI   4
LIMA           MOCLDY     8   3  80 CALM      29.97R HAZE
$$

OHZ009>014-019>023-028>033-038-089-271200-
   NORTHEAST OHIO

CITY           SKY/WX    TMP DP  RH WIND       PRES   REMARKS
CLE-HOPKINS    FLURRIES  18  14  84 N10       29.98R WCI   6
CLE-LAKEFRONT  CLOUDY    20  14  77 N12       29.96R WCI   8
CUY CO. ARPT   NOT AVBL
LORAIN-ELYRIA  CLOUDY    18  14  84 N7        29.96R WCI   9
ASHTABULA      LGT SNOW  17  14  88 N7        29.93R FOG     WCI   8
AKRON-CANTON   LGT SNOW  19  12  74 N7        29.89R WCI  10
WOOSTER        LGT SNOW  13  10  88 NW7       29.92R FOG     WCI   3
MANSFIELD      CLOUDY    11   9  92 NW7       29.92R FOG     WCI   0
YOUNGSTOWN     LGT SNOW  18  14  84 NW12      29.88R FOG     WCI   5
$$

OHZ042-051>053-060>062-070>072-077>081-271200-
  SOUTHWEST OHIO

CITY           SKY/WX    TMP DP  RH WIND       PRES   REMARKS
CINC-COVINGTON CLOUDY    22  16  78 NE7       29.93R WCI  13
CINC-LUNKEN    CLOUDY    19  14  81 NE6       29.98R WCI  11
HAMILTON       MOCLDY    19  12  74 NE3       29.98R
DAYTON         PTCLDY    14  10  84 N5        29.96R WCI   6
WRIGHT-PAT AFB MOCLDY    14  10  84 N3        29.97R
DAYTON GENERAL PTCLDY    13  10  88 NE6       29.94R WCI   4
WILMINGTON     PTCLDY    12   8  84 NE7       29.93R WCI   1
$$

OHZ036-037-039>041-045>050-054>059-063>069-073>076-082>088-271200-
  CENTRAL AND SOUTHEAST OHIO

CITY           SKY/WX    TMP DP  RH WIND       PRES   REMARKS
COLUMBUS       PTCLDY     7   3  84 N5        29.96R WCI  -2
OSU AIRPORT    FAIR       6   3  87 N5        29.95R FOG     WCI  -3
BOLTON FIELD   PTCLDY     7   4  89 MISG      29.96R
RICKENBACK AFB CLEAR      8   6  89 CALM      29.96R
NEWARK         CLOUDY     8   3  80 CALM      29.94R
MARION         FOG       -5  -9  83 CALM      29.97R VSB 1/4
LANCASTER      PTCLDY     4  -1  80 CALM      29.95R
ZANESVILLE     CLOUDY    16  11  80 NW6       29.93R WCI   7
NEW PHILLY     CLOUDY    19  13  77 NW7       29.92R HAZE    WCI  10
$$



USA.gov is the U.S. government's official web portal to all federal, state and local government web resources and services.